TRANSIT 20 DEB, 44565

Orbit data source: Space-Track

TRANSIT 20 DEB, 44565 is space debris in LEO originally from a launch on Tue, 30 Oct 1973 UTC launched from the Air Force Western Test Range (AFWTR). Debris objects in space refer to the collection of defunct objects orbiting the Earth. Examples of debris include non-operational satellites, rocket bodies, and fragments generated from explosions, collisions, or faulty payload assembly.

Loading next visibility...
Identifier
44565, 1973-081E
Orbit
LEO
Country
Flag of USUS
Related business
Manufacturer
Unknown
Mission
Spacecraft
Bus & Motor
Unknown
Mass
Unknown
Launch date (UTC)
1973-10-30 (53 years ago)
Launch vehicle
Unknown
Launch site
Air Force Western Test Range (AFWTR)
Object type
Payload
Rocket body
Debris
Shape & HBR
Unknown shape, 0.2 m
Radar Cross Section
Medium (>0.1 m² and <1 m²)

Expand to show TLE details & history
Last TLE update: 2 days ago

TLE from 2 days ago
0 TRANSIT 20 DEB
1 44565U 73081E   26171.21001932  .00000743  00000-0  71102-3 0  9996
2 44565  89.8629 252.5463 0139852 212.2660 146.9894 13.75428309338212
Epoch: 2026-06-20T05:02Z
TLE epoch observation values (Epoch: 2026-06-20T05:02:25.669Z)
Latitude
-0.00004°
Longitude
-91.48857°
Altitude
1,069.87 km
Speed
7.274 km/s
True Right ascension
16h 50m 11s
True Declination
0° 00' 00"
Sunlit
Object was in full shadow at epoch
Visualization orbit readout
Latitude
Unknown
Longitude
Unknown
Altitude
Unknown
Speed
Unknown
Apparent Right ascension
Unknown
Apparent Declination
Unknown
Sunlit
N/A
Visualization observer readout
Local Sidereal Time
21:23:43
Azimuth
Unknown
Elevation
Unknown
Doppler factor
Unknown
Orbital elements
Apogee altitude
1,080.024 km
Perigee altitude
874.293 km
Semi-major axis
7,355.296 km
Eccentricity
0.01399
Inclination
89.8629°
RAAN
252.5463°
Arg. of periapsis
212.266°
True anomaly
147.84983°
Mean anomaly
146.9894°
Eccentric anomaly
147.42087°
Mean motion
3.44067 °/min
Orbital period
104.63 mins
BSTAR
0.00071102
Loading maneuver chart data...
Computing Atmospheric mass density...
Loading historical data...
Loading historical data...
Loading historical data...
Loading historical data...
Loading historical data...
Loading historical data...
Loading historical data...
Other satellites on launch #81 in the year 1973 (1973-10-30 UTC)

Documentation

Showing up to 5 results
|